Location: Bonny Doon Airfield
(37.0704°N, 122.1252°W)
Time: 21:10:41
(UTC-07:00)

BREEZE M DEB (TANK) - Visible Passes

Search period start: 04 May 2015 00:00
Search period end: 14 May 2015 00:00
Orbit: 322 x 13790 km, 49.5° (Epoch: 04 May)

Date Brightness Start Highest point End Pass type
(mag) Time Alt. Az. Time Alt. Az. Time Alt. Az.
04 May 9.2 02:10:28 10° WSW 04:15:09 71° N 05:06:20 10° E visible
04 May 8.9 19:35:18 10° E 19:49:21 14° E 21:07:14 10° NE visible
04 May 8.8 23:26:55 10° SSW 00:42:53 82° SE 02:22:38 10° ENE visible
05 May 8.7 04:29:53 10° W 06:39:35 75° NNE 07:03:57 10° ESE visible
05 May 8.6 20:57:30 10° SSE 21:45:08 43° ESE 23:31:43 10° NE visible
06 May 9.1 01:26:21 10° WSW 03:21:40 74° NNW 04:24:22 10° ENE visible
06 May 8.7 22:45:59 10° SSW 23:53:05 75° SE 01:39:13 10° ENE visible
07 May 8.9 03:39:52 10° W 05:53:15 72° NNE 06:22:50 10° E visible
07 May 8.6 20:19:38 10° SSE 21:01:43 35° ESE 22:45:20 10° NE visible
08 May 9.0 00:43:02 10° SW 02:26:39 78° NNW 03:42:01 10° ENE visible
08 May 8.6 22:05:23 10° S 23:05:02 67° ESE 00:55:13 10° NE visible
09 May 9.2 02:51:44 10° W 05:05:01 71° N 05:41:24 10° E visible
09 May 8.6 19:43:02 10° SE 20:19:00 28° E 21:57:27 10° NE visible
10 May 8.9 00:00:22 10° SW 01:31:26 83° NNW 02:59:14 10° ENE visible
10 May 8.3 05:21:54 10° WNW 07:18:22 88° NE 07:37:11 10° SE visible
10 May 8.6 21:25:08 10° S 22:18:33 59° ESE 00:10:34 10° NE visible
11 May 9.4 02:05:10 10° WSW 04:14:31 70° N 04:59:36 10° E visible
11 May 8.7 19:08:34 10° ESE 19:36:49 21° E 21:07:21 10° NE visible
11 May 8.8 23:18:11 10° SW 00:37:23 89° NW 02:15:58 10° ENE visible
12 May 8.5 04:28:31 10° WNW 06:34:06 82° NNE 06:56:16 10° ESE visible
12 May 8.5 20:45:18 10° S 21:33:20 52° ESE 23:25:09 10° NE visible
13 May 9.3 01:19:50 10° WSW 03:21:25 71° N 04:17:25 10° E visible
